PGT77FH LTFJ-LTBS

Flight info

Callsign PGT77FH
Flight time 1h 33m
Altitude 36000
Route ROXUK UT409 NUMTI UT241 DEN/N0426F350 UW87 LAVTA/N0376F270 W87 ATSAL
Aircraft A320/M-SDE3FGHIRWY/LB1

Departure

Time 2026-04-20 12:36
Airport Istanbul Sabiha Gökçen International Airport (LTFJ)

Arrival

Time 2026-04-20 14:09
Airport Dalaman International Airport (LTBS)
Time Latitude Longitude Altitude Speed Heading
2026-04-20 11:51 40.90576 29.31483 320 ft 0 kts 333°
2026-04-20 12:20 40.90575 29.31484 320 ft 1 kts 333°
2026-04-20 12:20 40.90562 29.31492 320 ft 2 kts 333°
2026-04-20 12:20 40.90549 29.31501 320 ft 2 kts 333°
2026-04-20 12:20 40.90535 29.31510 320 ft 2 kts 333°
2026-04-20 12:21 40.90522 29.31518 320 ft 2 kts 336°
2026-04-20 12:21 40.90509 29.31527 320 ft 2 kts 333°
2026-04-20 12:21 40.90495 29.31536 320 ft 2 kts 333°
2026-04-20 12:21 40.90490 29.31539 320 ft 0 kts 325°
2026-04-20 12:22 40.90487 29.31544 320 ft 0 kts 265°
2026-04-20 12:22 40.90488 29.31550 320 ft 1 kts 235°
2026-04-20 12:22 40.90491 29.31555 320 ft 0 kts 243°
2026-04-20 12:25 40.90490 29.31554 320 ft 0 kts 243°
2026-04-20 12:25 40.90485 29.31538 320 ft 3 kts 245°
2026-04-20 12:26 40.90476 29.31512 320 ft 0 kts 245°
2026-04-20 12:26 40.90474 29.31505 320 ft 2 kts 246°
2026-04-20 12:27 40.90461 29.31470 320 ft 4 kts 244°
2026-04-20 12:27 40.90438 29.31436 320 ft 5 kts 200°
2026-04-20 12:27 40.90399 29.31447 320 ft 6 kts 155°
2026-04-20 12:27 40.90358 29.31474 320 ft 6 kts 150°
2026-04-20 12:28 40.90349 29.31481 320 ft 0 kts 150°
2026-04-20 12:28 40.90342 29.31486 320 ft 4 kts 152°
2026-04-20 12:28 40.90292 29.31502 320 ft 8 kts 188°
2026-04-20 12:29 40.90256 29.31443 320 ft 8 kts 243°
2026-04-20 12:29 40.90230 29.31369 320 ft 8 kts 246°
2026-04-20 12:29 40.90202 29.31290 320 ft 10 kts 244°
2026-04-20 12:29 40.90161 29.31182 320 ft 14 kts 243°
2026-04-20 12:30 40.90117 29.31065 320 ft 13 kts 243°
2026-04-20 12:30 40.90076 29.30952 320 ft 13 kts 244°
2026-04-20 12:30 40.90037 29.30843 320 ft 12 kts 244°
2026-04-20 12:30 40.89999 29.30740 320 ft 12 kts 244°
2026-04-20 12:31 40.89960 29.30634 320 ft 13 kts 243°
2026-04-20 12:31 40.89919 29.30524 320 ft 12 kts 244°
2026-04-20 12:31 40.89879 29.30418 320 ft 13 kts 243°
2026-04-20 12:31 40.89838 29.30306 320 ft 13 kts 245°
2026-04-20 12:32 40.89796 29.30190 320 ft 14 kts 243°
2026-04-20 12:32 40.89750 29.30067 320 ft 14 kts 244°
2026-04-20 12:32 40.89704 29.29944 320 ft 15 kts 242°
2026-04-20 12:32 40.89657 29.29814 320 ft 15 kts 245°
2026-04-20 12:33 40.89610 29.29684 320 ft 16 kts 243°
2026-04-20 12:33 40.89559 29.29550 320 ft 16 kts 244°
2026-04-20 12:33 40.89509 29.29414 320 ft 16 kts 244°
2026-04-20 12:33 40.89464 29.29293 320 ft 8 kts 240°
2026-04-20 12:34 40.89415 29.29250 320 ft 9 kts 180°
2026-04-20 12:34 40.89354 29.29281 320 ft 10 kts 154°
2026-04-20 12:34 40.89296 29.29335 320 ft 10 kts 119°
2026-04-20 12:34 40.89305 29.29430 320 ft 11 kts 62°
2026-04-20 12:35 40.89351 29.29554 320 ft 31 kts 65°
2026-04-20 12:35 40.89560 29.30121 320 ft 103 kts 64°
2026-04-20 12:35 40.89975 29.31241 322 ft 163 kts 63°
2026-04-20 12:35 40.90507 29.32679 746 ft 177 kts 64°
2026-04-20 12:36 40.91045 29.34055 1598 ft 169 kts 64°
2026-04-20 12:36 40.91549 29.35436 2338 ft 171 kts 64°
2026-04-20 12:36 40.92073 29.36886 2781 ft 184 kts 64°
2026-04-20 12:36 40.92651 29.38476 3171 ft 201 kts 64°
2026-04-20 12:37 40.93087 29.40325 3470 ft 225 kts 88°
2026-04-20 12:37 40.92737 29.42421 3929 ft 246 kts 117°
2026-04-20 12:37 40.91542 29.44102 4416 ft 265 kts 148°
2026-04-20 12:37 40.89842 29.45151 5175 ft 273 kts 154°
2026-04-20 12:38 40.88103 29.46212 6005 ft 277 kts 154°
2026-04-20 12:38 40.86359 29.47309 6609 ft 281 kts 153°
2026-04-20 12:38 40.84584 29.48438 6966 ft 285 kts 153°
2026-04-20 12:38 40.82773 29.49591 7572 ft 292 kts 153°
2026-04-20 12:39 40.79151 29.51892 9393 ft 294 kts 153°
2026-04-20 12:39 40.77360 29.53216 10164 ft 298 kts 142°
2026-04-20 12:39 40.75720 29.54934 10772 ft 308 kts 144°
2026-04-20 12:40 40.73735 29.56086 11379 ft 317 kts 169°
2026-04-20 12:40 40.71546 29.56310 12127 ft 319 kts 179°
2026-04-20 12:40 40.69322 29.56371 12836 ft 323 kts 178°
2026-04-20 12:40 40.67076 29.56528 13530 ft 327 kts 176°
2026-04-20 12:41 40.64812 29.56799 14210 ft 330 kts 174°
2026-04-20 12:41 40.62500 29.57158 14897 ft 334 kts 173°
2026-04-20 12:41 40.60211 29.57563 15548 ft 337 kts 172°
2026-04-20 12:41 40.57865 29.58007 16184 ft 340 kts 172°
2026-04-20 12:42 40.55528 29.58466 16808 ft 344 kts 172°
2026-04-20 12:42 40.53170 29.58936 17420 ft 347 kts 171°
2026-04-20 12:42 40.50758 29.59422 18022 ft 350 kts 171°
2026-04-20 12:42 40.48364 29.59907 18585 ft 354 kts 171°
2026-04-20 12:43 40.45913 29.60405 19172 ft 357 kts 172°
2026-04-20 12:43 40.43441 29.60908 19750 ft 361 kts 172°
2026-04-20 12:43 40.40952 29.61413 20314 ft 364 kts 172°
2026-04-20 12:43 40.38452 29.61920 20853 ft 367 kts 172°
2026-04-20 12:44 40.35902 29.62436 21395 ft 370 kts 172°
2026-04-20 12:44 40.33363 29.62950 21933 ft 373 kts 172°
2026-04-20 12:44 40.30795 29.63469 22463 ft 376 kts 172°
2026-04-20 12:44 40.28187 29.63997 22977 ft 379 kts 172°
2026-04-20 12:45 40.25594 29.64521 23480 ft 382 kts 172°
2026-04-20 12:45 40.22924 29.65059 23902 ft 385 kts 173°
2026-04-20 12:45 40.20285 29.65591 23984 ft 385 kts 173°
2026-04-20 12:45 40.17638 29.66125 23988 ft 385 kts 173°
2026-04-20 12:46 40.14977 29.66661 23994 ft 385 kts 173°
2026-04-20 12:46 40.12338 29.67192 23995 ft 386 kts 173°
2026-04-20 12:46 40.09676 29.67727 23997 ft 386 kts 173°
2026-04-20 12:46 40.07050 29.68254 24000 ft 386 kts 173°
2026-04-20 12:47 40.04374 29.68791 23997 ft 385 kts 173°
2026-04-20 12:47 40.01725 29.69323 23996 ft 385 kts 173°
2026-04-20 12:47 39.99055 29.69858 23996 ft 385 kts 173°
2026-04-20 12:47 39.96434 29.70383 23993 ft 385 kts 173°
2026-04-20 12:48 39.93759 29.70918 23996 ft 385 kts 173°
2026-04-20 12:48 39.91118 29.71411 24277 ft 389 kts 177°
2026-04-20 12:48 39.88459 29.71106 25064 ft 377 kts 199°
2026-04-20 12:48 39.86135 29.69726 25989 ft 360 kts 214°
2026-04-20 12:49 39.84059 29.68084 26901 ft 348 kts 215°
2026-04-20 12:49 39.82039 29.66459 27769 ft 337 kts 215°
2026-04-20 12:49 39.80069 29.64884 28427 ft 331 kts 215°
2026-04-20 12:49 39.78102 29.63324 28849 ft 333 kts 215°
2026-04-20 12:50 39.76114 29.61758 29215 ft 335 kts 214°
2026-04-20 12:50 39.74108 29.60186 29586 ft 337 kts 214°
2026-04-20 12:50 39.72107 29.58623 29948 ft 340 kts 214°
2026-04-20 12:50 39.70073 29.57040 30304 ft 342 kts 214°
2026-04-20 12:51 39.68030 29.55450 30648 ft 344 kts 214°
2026-04-20 12:51 39.65989 29.53863 30978 ft 346 kts 214°
2026-04-20 12:51 39.63932 29.52234 31299 ft 348 kts 217°
2026-04-20 12:51 39.61924 29.50483 31630 ft 349 kts 218°
2026-04-20 12:52 39.59903 29.48698 31968 ft 350 kts 218°
2026-04-20 12:52 39.57890 29.46921 32292 ft 352 kts 218°
2026-04-20 12:52 39.55870 29.45138 32600 ft 354 kts 218°
2026-04-20 12:52 39.53818 29.43331 32910 ft 356 kts 218°
2026-04-20 12:53 39.51763 29.41523 33222 ft 357 kts 217°
2026-04-20 12:53 39.49728 29.39733 33517 ft 359 kts 217°
2026-04-20 12:53 39.47665 29.37921 33746 ft 363 kts 217°
2026-04-20 12:53 39.45559 29.36071 33883 ft 369 kts 217°
2026-04-20 12:54 39.43412 29.34188 34013 ft 374 kts 217°
2026-04-20 12:54 39.41223 29.32269 34164 ft 380 kts 217°
2026-04-20 12:54 39.39014 29.30335 34303 ft 386 kts 217°
2026-04-20 12:54 39.36799 29.28397 34438 ft 391 kts 217°
2026-04-20 12:55 39.34531 29.26414 34571 ft 397 kts 217°
2026-04-20 12:55 39.32233 29.24406 34698 ft 402 kts 217°
2026-04-20 12:55 39.29889 29.22360 34826 ft 407 kts 217°
2026-04-20 12:56 39.25160 29.18237 34988 ft 417 kts 217°
2026-04-20 12:56 39.22744 29.16135 35107 ft 419 kts 216°
2026-04-20 12:56 39.20324 29.14031 35267 ft 419 kts 217°
2026-04-20 12:56 39.17891 29.11919 35413 ft 420 kts 217°
2026-04-20 12:57 39.15478 29.09825 35765 ft 421 kts 217°
2026-04-20 12:57 39.10622 29.05613 35987 ft 424 kts 217°
2026-04-20 12:58 39.05747 29.01391 35984 ft 424 kts 217°
2026-04-20 12:58 39.00832 28.97143 35975 ft 424 kts 217°
2026-04-20 12:59 38.95950 28.92931 35979 ft 424 kts 217°
2026-04-20 12:59 38.91047 28.88708 35971 ft 423 kts 217°
2026-04-20 13:00 38.86138 28.84485 35968 ft 423 kts 217°
2026-04-20 13:00 38.81229 28.80269 35967 ft 423 kts 217°
2026-04-20 13:01 38.76335 28.76076 35970 ft 424 kts 217°
2026-04-20 13:01 38.71406 28.71858 35970 ft 424 kts 217°
2026-04-20 13:02 38.66482 28.67651 35973 ft 424 kts 217°
2026-04-20 13:02 38.61355 28.63898 35970 ft 428 kts 207°
2026-04-20 13:03 38.55645 28.61686 35971 ft 434 kts 194°
2026-04-20 13:03 38.49611 28.61212 35969 ft 439 kts 180°
2026-04-20 13:04 38.43507 28.61898 35973 ft 440 kts 178°
2026-04-20 13:04 38.40443 28.62278 35835 ft 441 kts 178°
2026-04-20 13:04 38.37412 28.62651 35599 ft 439 kts 178°
2026-04-20 13:04 38.34385 28.63018 35239 ft 438 kts 178°
2026-04-20 13:05 38.31329 28.63383 34731 ft 439 kts 178°
2026-04-20 13:05 38.28282 28.63743 34078 ft 442 kts 178°
2026-04-20 13:05 38.25217 28.64103 33356 ft 445 kts 178°
2026-04-20 13:05 38.22146 28.64464 32757 ft 444 kts 178°
2026-04-20 13:06 38.19110 28.64822 32293 ft 440 kts 178°
2026-04-20 13:06 38.16060 28.65183 31834 ft 436 kts 178°
2026-04-20 13:06 38.13053 28.65536 31373 ft 432 kts 178°
2026-04-20 13:06 38.10084 28.65886 31023 ft 425 kts 178°
2026-04-20 13:07 38.07207 28.66225 30976 ft 417 kts 178°
2026-04-20 13:07 38.01422 28.66903 30971 ft 417 kts 178°
2026-04-20 13:08 37.95579 28.67583 30967 ft 417 kts 179°
2026-04-20 13:08 37.92712 28.67477 30952 ft 410 kts 194°
2026-04-20 13:08 37.90028 28.66417 30700 ft 402 kts 205°
2026-04-20 13:08 37.87423 28.65062 29725 ft 411 kts 206°
2026-04-20 13:09 37.84736 28.63730 28432 ft 427 kts 204°
2026-04-20 13:09 37.81896 28.62466 26996 ft 443 kts 202°
2026-04-20 13:09 37.78927 28.61243 25518 ft 458 kts 201°
2026-04-20 13:09 37.75898 28.60142 24825 ft 450 kts 194°
2026-04-20 13:10 37.72820 28.59716 24541 ft 440 kts 184°
2026-04-20 13:10 37.69781 28.59902 24269 ft 429 kts 179°
2026-04-20 13:10 37.66851 28.60151 23988 ft 417 kts 179°
2026-04-20 13:10 37.63994 28.60362 23600 ft 408 kts 180°
2026-04-20 13:11 37.61188 28.60561 23211 ft 401 kts 180°
2026-04-20 13:11 37.58443 28.60756 22929 ft 391 kts 180°
2026-04-20 13:11 37.55760 28.60949 22661 ft 381 kts 180°
2026-04-20 13:11 37.53138 28.61087 22394 ft 371 kts 185°
2026-04-20 13:12 37.50620 28.60707 22141 ft 362 kts 197°
2026-04-20 13:12 37.48233 28.59759 21795 ft 358 kts 205°
2026-04-20 13:12 37.45914 28.58592 21306 ft 357 kts 206°
2026-04-20 13:12 37.43632 28.57409 20773 ft 358 kts 206°
2026-04-20 13:13 37.41307 28.56208 20202 ft 360 kts 206°
2026-04-20 13:13 37.38988 28.55024 19624 ft 362 kts 206°
2026-04-20 13:13 37.36659 28.53846 19048 ft 364 kts 205°
2026-04-20 13:13 37.34334 28.52677 18467 ft 365 kts 205°
2026-04-20 13:14 37.31979 28.51496 17975 ft 363 kts 205°
2026-04-20 13:14 37.29620 28.50315 17609 ft 358 kts 205°
2026-04-20 13:14 37.27343 28.49176 17300 ft 352 kts 205°
2026-04-20 13:14 37.25071 28.48070 17012 ft 346 kts 201°
2026-04-20 13:15 37.22723 28.47591 16738 ft 344 kts 182°
2026-04-20 13:15 37.20364 28.47988 16478 ft 342 kts 169°
2026-04-20 13:15 37.18050 28.48712 16219 ft 342 kts 167°
2026-04-20 13:15 37.15754 28.49481 15967 ft 341 kts 167°
2026-04-20 13:16 37.13450 28.50240 15721 ft 340 kts 167°
2026-04-20 13:16 37.11098 28.50992 15468 ft 338 kts 168°
2026-04-20 13:16 37.08839 28.51701 15237 ft 338 kts 168°
2026-04-20 13:16 37.06536 28.52417 14998 ft 337 kts 168°
2026-04-20 13:17 37.04328 28.53345 14731 ft 337 kts 151°
2026-04-20 13:17 37.02628 28.55302 14481 ft 335 kts 121°
2026-04-20 13:17 37.01864 28.58003 14200 ft 324 kts 91°
2026-04-20 13:17 37.02117 28.60729 13933 ft 313 kts 72°
2026-04-20 13:18 37.02736 28.63306 13673 ft 307 kts 70°
2026-04-20 13:18 37.03323 28.65863 13417 ft 303 kts 72°
2026-04-20 13:18 37.03904 28.68335 13175 ft 296 kts 62°
2026-04-20 13:18 37.04968 28.70488 12914 ft 288 kts 50°
2026-04-20 13:19 37.06214 28.72468 12596 ft 286 kts 48°
2026-04-20 13:19 37.07457 28.74412 12275 ft 285 kts 49°
2026-04-20 13:19 37.08653 28.76333 12004 ft 282 kts 49°
2026-04-20 13:19 37.09857 28.78305 11957 ft 283 kts 50°
2026-04-20 13:20 37.11068 28.80220 11950 ft 283 kts 47°
2026-04-20 13:20 37.12325 28.82138 11958 ft 283 kts 47°
2026-04-20 13:20 37.13569 28.84020 11970 ft 283 kts 47°
2026-04-20 13:20 37.14737 28.86046 11955 ft 287 kts 62°
2026-04-20 13:21 37.15278 28.88533 11970 ft 291 kts 77°
2026-04-20 13:21 37.15595 28.91003 11961 ft 283 kts 78°
2026-04-20 13:21 37.15888 28.93395 11959 ft 270 kts 81°
2026-04-20 13:21 37.15702 28.95686 11883 ft 265 kts 112°
2026-04-20 13:22 37.14595 28.97465 11659 ft 263 kts 139°
2026-04-20 13:22 37.13181 28.98915 11463 ft 257 kts 140°
2026-04-20 13:22 37.11770 29.00368 10897 ft 262 kts 139°
2026-04-20 13:22 37.10362 29.01877 10111 ft 272 kts 137°
2026-04-20 13:23 37.08937 29.03447 9461 ft 273 kts 136°
2026-04-20 13:23 37.07537 29.04995 9023 ft 266 kts 140°
2026-04-20 13:23 37.05913 29.05960 8932 ft 253 kts 175°
2026-04-20 13:23 37.04244 29.05605 8746 ft 243 kts 208°
2026-04-20 13:24 37.02825 29.04492 8496 ft 239 kts 217°
2026-04-20 13:24 37.01464 29.03277 8211 ft 238 kts 216°
2026-04-20 13:24 37.00091 29.02122 7942 ft 237 kts 214°
2026-04-20 13:24 36.98709 29.01035 7672 ft 236 kts 213°
2026-04-20 13:25 36.97293 28.99964 7388 ft 235 kts 212°
2026-04-20 13:25 36.95863 28.98904 7130 ft 235 kts 211°
2026-04-20 13:25 36.94455 28.97852 6847 ft 234 kts 214°
2026-04-20 13:25 36.93132 28.96635 6527 ft 236 kts 220°
2026-04-20 13:26 36.91857 28.95295 5977 ft 245 kts 221°
2026-04-20 13:26 36.90544 28.93888 5421 ft 251 kts 221°
2026-04-20 13:26 36.89199 28.92450 4881 ft 261 kts 221°
2026-04-20 13:26 36.87774 28.90932 4487 ft 264 kts 221°
2026-04-20 13:27 36.86339 28.89411 4255 ft 260 kts 221°
2026-04-20 13:27 36.84869 28.88089 4009 ft 255 kts 212°
2026-04-20 13:27 36.83366 28.86979 3586 ft 250 kts 211°
2026-04-20 13:27 36.81893 28.85929 3331 ft 237 kts 211°
2026-04-20 13:28 36.80495 28.84930 3310 ft 222 kts 211°
2026-04-20 13:28 36.79159 28.83950 3104 ft 220 kts 213°
2026-04-20 13:28 36.77922 28.82848 2854 ft 218 kts 220°
2026-04-20 13:28 36.76743 28.81686 2642 ft 214 kts 217°
2026-04-20 13:29 36.75462 28.80734 2409 ft 222 kts 206°
2026-04-20 13:29 36.73851 28.79831 2536 ft 266 kts 206°
2026-04-20 13:29 36.72253 28.78841 2739 ft 256 kts 209°
2026-04-20 13:29 36.70692 28.77773 3352 ft 255 kts 210°
2026-04-20 13:30 36.69192 28.76706 4512 ft 248 kts 211°
2026-04-20 13:30 36.67753 28.75672 5708 ft 238 kts 211°
2026-04-20 13:30 36.66354 28.74662 6675 ft 236 kts 212°
2026-04-20 13:30 36.64939 28.73637 7514 ft 239 kts 212°
2026-04-20 13:31 36.63504 28.72596 8253 ft 242 kts 212°
2026-04-20 13:31 36.62050 28.71541 8718 ft 244 kts 213°
2026-04-20 13:31 36.60579 28.70473 8905 ft 245 kts 213°
2026-04-20 13:31 36.59059 28.69531 8902 ft 245 kts 197°
2026-04-20 13:32 36.57359 28.69375 8912 ft 247 kts 171°
2026-04-20 13:32 36.55756 28.70105 8912 ft 246 kts 145°
2026-04-20 13:32 36.54526 28.71582 8921 ft 244 kts 121°
2026-04-20 13:32 36.53662 28.73388 8912 ft 243 kts 117°
2026-04-20 13:33 36.52845 28.75229 8922 ft 243 kts 116°
2026-04-20 13:33 36.52028 28.77041 8921 ft 243 kts 117°
2026-04-20 13:33 36.51185 28.78872 8918 ft 243 kts 117°
2026-04-20 13:33 36.50335 28.80695 8924 ft 243 kts 116°
2026-04-20 13:34 36.49788 28.82655 8905 ft 238 kts 92°
2026-04-20 13:34 36.49934 28.84658 8916 ft 233 kts 68°
2026-04-20 13:34 36.50665 28.86419 8923 ft 229 kts 52°
2026-04-20 13:34 36.51582 28.88032 8914 ft 229 kts 51°
2026-04-20 13:35 36.52509 28.89636 8918 ft 229 kts 52°
2026-04-20 13:35 36.53433 28.91252 8920 ft 229 kts 52°
2026-04-20 13:35 36.54346 28.92867 8924 ft 229 kts 52°
2026-04-20 13:35 36.55270 28.94510 8916 ft 229 kts 52°
2026-04-20 13:36 36.56166 28.96114 8923 ft 228 kts 52°
2026-04-20 13:36 36.57083 28.97758 8919 ft 228 kts 52°
2026-04-20 13:36 36.57978 28.99364 8908 ft 228 kts 52°
2026-04-20 13:36 36.58882 29.00989 8919 ft 228 kts 52°
2026-04-20 13:37 36.59783 29.02610 8922 ft 228 kts 52°
2026-04-20 13:37 36.60690 29.04243 8928 ft 228 kts 52°
2026-04-20 13:37 36.61592 29.05868 8925 ft 228 kts 52°
2026-04-20 13:37 36.62495 29.07494 8929 ft 228 kts 52°
2026-04-20 13:38 36.63403 29.09131 8940 ft 229 kts 53°
2026-04-20 13:38 36.64305 29.10756 8943 ft 229 kts 53°
2026-04-20 13:38 36.65245 29.12345 8942 ft 227 kts 43°
2026-04-20 13:38 36.66510 29.13497 8947 ft 224 kts 22°
2026-04-20 13:39 36.67992 29.14047 8962 ft 222 kts
2026-04-20 13:39 36.69529 29.14382 8968 ft 222 kts
2026-04-20 13:39 36.71040 29.14694 8961 ft 222 kts
2026-04-20 13:39 36.72568 29.15012 8961 ft 222 kts
2026-04-20 13:40 36.74098 29.15335 8962 ft 222 kts
2026-04-20 13:40 36.75634 29.15664 8969 ft 223 kts
2026-04-20 13:40 36.77163 29.15994 8969 ft 223 kts
2026-04-20 13:40 36.78683 29.16323 8961 ft 223 kts
2026-04-20 13:41 36.80219 29.16655 8968 ft 223 kts
2026-04-20 13:41 36.81762 29.16991 8960 ft 224 kts
2026-04-20 13:41 36.83298 29.17325 8967 ft 223 kts
2026-04-20 13:41 36.84830 29.17659 8968 ft 223 kts
2026-04-20 13:42 36.86350 29.17990 8968 ft 223 kts
2026-04-20 13:42 36.89419 29.18659 8962 ft 222 kts
2026-04-20 13:42 36.90949 29.18993 8967 ft 223 kts
2026-04-20 13:43 36.92469 29.19325 8971 ft 223 kts
2026-04-20 13:43 36.93993 29.19659 8976 ft 223 kts
2026-04-20 13:43 36.95524 29.19993 8972 ft 223 kts
2026-04-20 13:43 36.97067 29.20324 8967 ft 223 kts
2026-04-20 13:44 36.98613 29.20198 8959 ft 223 kts 342°
2026-04-20 13:44 36.99969 29.19284 8970 ft 224 kts 319°
2026-04-20 13:44 37.00952 29.17769 8963 ft 226 kts 303°
2026-04-20 13:44 37.01750 29.16078 8965 ft 226 kts 302°
2026-04-20 13:45 37.02533 29.14383 8956 ft 226 kts 302°
2026-04-20 13:45 37.03325 29.12681 8892 ft 226 kts 302°
2026-04-20 13:45 37.04123 29.10977 8836 ft 226 kts 302°
2026-04-20 13:45 37.04910 29.09280 8772 ft 226 kts 298°
2026-04-20 13:46 37.05234 29.07397 8686 ft 231 kts 265°
2026-04-20 13:46 37.04640 29.05493 8410 ft 242 kts 232°
2026-04-20 13:46 37.03293 29.04206 7886 ft 254 kts 209°
2026-04-20 13:46 37.01702 29.03123 7377 ft 263 kts 210°
2026-04-20 13:47 37.00091 29.01983 6866 ft 271 kts 211°
2026-04-20 13:47 36.98453 29.00796 6572 ft 269 kts 211°
2026-04-20 13:47 36.96852 28.99627 6283 ft 267 kts 211°
2026-04-20 13:47 36.95258 28.98461 6058 ft 264 kts 211°
2026-04-20 13:48 36.93731 28.97232 5828 ft 259 kts 218°
2026-04-20 13:48 36.92338 28.95818 5612 ft 255 kts 221°
2026-04-20 13:48 36.90974 28.94361 5181 ft 261 kts 221°
2026-04-20 13:48 36.89582 28.92866 4607 ft 273 kts 221°
2026-04-20 13:49 36.88107 28.91290 4025 ft 283 kts 221°
2026-04-20 13:49 36.86610 28.89699 3633 ft 285 kts 221°
2026-04-20 13:49 36.85028 28.88192 3258 ft 286 kts 213°
2026-04-20 13:49 36.83323 28.86919 2799 ft 289 kts 211°
2026-04-20 13:50 36.81607 28.85702 2346 ft 279 kts 210°
2026-04-20 13:50 36.79933 28.84513 1906 ft 268 kts 211°
2026-04-20 13:50 36.78360 28.83385 1500 ft 257 kts 211°
2026-04-20 13:50 36.76845 28.82286 1109 ft 247 kts 211°
2026-04-20 13:51 36.75381 28.81220 780 ft 252 kts 211°
2026-04-20 13:51 36.73701 28.80002 856 ft 294 kts 210°
2026-04-20 13:51 36.71914 28.78938 992 ft 278 kts 203°
2026-04-20 13:51 36.70153 28.77915 1278 ft 282 kts 208°
2026-04-20 13:52 36.68423 28.76723 2238 ft 286 kts 210°
2026-04-20 13:52 36.66754 28.75549 3570 ft 277 kts 211°
2026-04-20 13:52 36.65459 28.74637 4626 ft 269 kts 211°
2026-04-20 13:53 36.64343 28.73853 5537 ft 261 kts 211°
2026-04-20 13:53 36.62815 28.72785 6746 ft 246 kts 211°
2026-04-20 13:53 36.61388 28.71732 7707 ft 240 kts 215°
2026-04-20 13:53 36.60006 28.70562 8420 ft 241 kts 217°
2026-04-20 13:54 36.58635 28.69367 8859 ft 241 kts 218°
2026-04-20 13:54 36.57261 28.68180 9007 ft 242 kts 217°
2026-04-20 13:54 36.55851 28.66974 9007 ft 243 kts 216°
2026-04-20 13:54 36.54301 28.66164 9002 ft 245 kts 187°
2026-04-20 13:55 36.52632 28.66413 9016 ft 246 kts 155°
2026-04-20 13:55 36.51289 28.67674 9020 ft 244 kts 123°
2026-04-20 13:55 36.50664 28.69568 9002 ft 237 kts 89°
2026-04-20 13:55 36.50985 28.71514 9019 ft 229 kts 56°
2026-04-20 13:56 36.51935 28.73092 9062 ft 229 kts 58°
2026-04-20 13:56 36.52346 28.75009 9141 ft 237 kts 89°
2026-04-20 13:56 36.51933 28.77008 9220 ft 243 kts 118°
2026-04-20 13:56 36.50879 28.78649 9275 ft 246 kts 124°
2026-04-20 13:57 36.50126 28.80533 9118 ft 240 kts 100°
2026-04-20 13:57 36.50034 28.82557 8942 ft 233 kts 76°
2026-04-20 13:57 36.50592 28.84402 8782 ft 227 kts 52°
2026-04-20 13:57 36.51693 28.85734 8657 ft 221 kts 22°
2026-04-20 13:58 36.53186 28.85917 8818 ft 219 kts 347°
2026-04-20 13:58 36.54681 28.85647 9126 ft 220 kts
2026-04-20 13:58 36.56148 28.86247 9216 ft 223 kts 20°
2026-04-20 13:58 36.57575 28.86944 9182 ft 221 kts 19°
2026-04-20 13:59 36.59026 28.87577 9105 ft 220 kts
2026-04-20 13:59 36.60549 28.87562 9049 ft 219 kts 353°
2026-04-20 13:59 36.62069 28.87599 9025 ft 220 kts 10°
2026-04-20 13:59 36.63562 28.88060 9017 ft 221 kts 14°
2026-04-20 14:00 36.65030 28.88634 9018 ft 221 kts 17°
2026-04-20 14:00 36.66488 28.89261 9014 ft 221 kts 17°
2026-04-20 14:00 36.67946 28.89863 9010 ft 221 kts 10°
2026-04-20 14:00 36.69476 28.90073 9031 ft 220 kts
2026-04-20 14:01 36.70986 28.90400 9029 ft 221 kts 12°
2026-04-20 14:01 36.72463 28.90897 9019 ft 221 kts 15°
2026-04-20 14:01 36.73950 28.91449 9014 ft 221 kts 15°
2026-04-20 14:01 36.75405 28.91997 9013 ft 221 kts 15°
2026-04-20 14:02 36.76884 28.92553 8889 ft 223 kts 15°
2026-04-20 14:02 36.78390 28.93117 8424 ft 227 kts 15°
2026-04-20 14:02 36.79932 28.93692 7892 ft 235 kts 15°
2026-04-20 14:02 36.81506 28.94272 7229 ft 240 kts 15°
2026-04-20 14:03 36.83123 28.94814 6563 ft 243 kts 13°
2026-04-20 14:03 36.84763 28.95221 5908 ft 245 kts
2026-04-20 14:03 36.86460 28.95346 5258 ft 247 kts 359°
2026-04-20 14:03 36.88173 28.95203 4663 ft 246 kts 346°
2026-04-20 14:04 36.89629 28.94246 4352 ft 233 kts 314°
2026-04-20 14:04 36.90386 28.92507 4340 ft 230 kts 281°
2026-04-20 14:04 36.90493 28.90578 4341 ft 217 kts 271°
2026-04-20 14:04 36.90453 28.88725 4341 ft 214 kts 269°
2026-04-20 14:05 36.90240 28.86893 4338 ft 215 kts 255°
2026-04-20 14:05 36.89556 28.85231 4314 ft 218 kts 226°
2026-04-20 14:05 36.88295 28.84178 4095 ft 219 kts 206°
2026-04-20 14:05 36.86937 28.83475 4106 ft 201 kts 198°
2026-04-20 14:06 36.85601 28.83256 3948 ft 186 kts 179°
2026-04-20 14:06 36.84373 28.83293 3797 ft 171 kts 183°
2026-04-20 14:06 36.83209 28.83164 3497 ft 167 kts 188°
2026-04-20 14:06 36.82062 28.82898 3123 ft 164 kts 192°
2026-04-20 14:07 36.80932 28.82567 2592 ft 172 kts 195°
2026-04-20 14:07 36.79780 28.82180 2136 ft 172 kts 197°
2026-04-20 14:07 36.78630 28.81767 1763 ft 168 kts 198°
2026-04-20 14:07 36.77516 28.81344 1250 ft 174 kts 198°
2026-04-20 14:08 36.76361 28.80921 863 ft 168 kts 197°
2026-04-20 14:08 36.75272 28.80559 566 ft 157 kts 187°
2026-04-20 14:08 36.74258 28.80257 341 ft 142 kts 196°
2026-04-20 14:08 36.73342 28.79950 166 ft 129 kts 198°
2026-04-20 14:09 36.72523 28.79659 34 ft 119 kts 197°
2026-04-20 14:09 36.71809 28.79414 22 ft 83 kts 197°
2026-04-20 14:09 36.71389 28.79273 19 ft 50 kts 195°
2026-04-20 14:09 36.71071 28.79163 17 ft 44 kts 195°
2026-04-20 14:10 36.70819 28.79076 16 ft 26 kts 197°
2026-04-20 14:10 36.70659 28.78969 13 ft 25 kts 218°
2026-04-20 14:10 36.70599 28.78899 15 ft 8 kts 228°
2026-04-20 14:10 36.70568 28.78839 16 ft 7 kts 269°
2026-04-20 14:11 36.70607 28.78796 16 ft 8 kts
2026-04-20 14:11 36.70676 28.78818 16 ft 11 kts 15°
2026-04-20 14:11 36.70761 28.78848 16 ft 13 kts 16°
2026-04-20 14:11 36.70859 28.78879 16 ft 14 kts 15°
2026-04-20 14:12 36.70963 28.78917 16 ft 18 kts 15°
2026-04-20 14:12 36.71092 28.78959 18 ft 18 kts 15°
2026-04-20 14:12 36.71217 28.79001 19 ft 18 kts 16°
2026-04-20 14:12 36.71306 28.79025 19 ft 10 kts 348°
2026-04-20 14:13 36.71341 28.78945 19 ft 11 kts 284°
2026-04-20 14:13 36.71370 28.78853 20 ft 11 kts 323°
2026-04-20 14:13 36.71446 28.78865 21 ft 11 kts 17°
2026-04-20 14:13 36.71524 28.78893 23 ft 11 kts 15°
2026-04-20 14:14 36.71585 28.78907 24 ft 6 kts 342°
2026-04-20 14:14 36.71606 28.78859 25 ft 6 kts 287°
2026-04-20 14:14 36.71611 28.78836 25 ft 0 kts 285°
2026-04-20 14:14 36.71612 28.78833 25 ft 0 kts 292°
2026-04-20 14:15 36.71613 28.78830 25 ft 0 kts 287°